Home   Weather   Biberach an der Riss   Past weeks

Flag for Germany Past Weather in Biberach an der Riss, Baden-Württemberg, Germany — Yesterday and Last 2 Weeks

Now
14 °F

Ice fog.


Feels Like: 14 °F
Forecast: 5 / 26 °F
Wind: 1 mph from Northeast

Location: Laupheim Airport

Current Time: Jan 22, 2017 at 3:44:55 pm

Latest Report: Jan 22, 2017 at 2:20 pm


Visibility: 2 mi

Pressure: 30.18 "Hg (28.15 "Hg at 536m altitude)

Humidity: 92%

Dew Point: 12 °F

Location of Biberach an der RissLocation

Past Weather in Biberach an der Riss — Graph

°F

Biberach an der Riss Temperature Yesterday

Maximum temperature yesterday: 18 °F (at 1:20 pm)
Minimum temperature yesterday: 10 °F (at 4:20 am)
Average temperature yesterday: 13 °F

High & Low Weather Summary for the Past Weeks

 TemperatureHumidityPressure
High41 °F (Jan 13, 1:20 am)100% (Jan 8, 9:06 pm)30.45 "Hg (Jan 8, 9:06 pm)
Low5 °F (Jan 22, 3:20 am)51% (Jan 13, 11:20 am)29.39 "Hg (Jan 13, 1:20 am)
Average25 °F85%30.14 "Hg
* Reported Jan 7 2:20 pm — Jan 22 2:20 pm, Biberach an der Riss, Weather by CustomWeather, © 2017

Note: Actual official high and low records may vary slightly from our data, if they occured in-between our weather recording intervals... More about our weather records

Advertising

Biberach an der Riss Weather History for the Previous 24 Hours

Scroll right to see more
 ConditionsComfort  
Time TempWeatherWind HumidityBarometerVisibility
2:20 pm
Sun, Jan 22
14 °FIce fog.1 mph92%30.18 "Hg1 mi
1:20 pm14 °FIce fog.1 mph92%30.21 "Hg2 mi
12:42 pm12 °FIce fog.No wind85%30.21 "Hg1 mi
12:20 pm12 °FIce fog.1 mph92%30.24 "Hg1 mi
11:20 am12 °FIce fog.No wind92%30.24 "Hg0 mi
10:20 am10 °FIce fog.1 mph85%30.27 "Hg0 mi
9:20 am9 °FIce fog.1 mph85%30.27 "Hg0 mi
8:20 am9 °FIce fog.1 mph85%30.27 "Hg0 mi
7:20 am9 °FIce fog.1 mph85%30.24 "Hg0 mi
6:20 am7 °FIce fog.1 mph85%30.27 "Hg1 mi
5:20 am7 °FIce fog.No wind85%30.24 "Hg0 mi
4:20 am7 °FIce fog.No wind85%30.27 "Hg0 mi
3:20 am5 °FIce fog.1 mph92%30.27 "Hg1 mi
2:20 am9 °FIce fog.1 mph85%30.30 "Hg0 mi
1:20 am9 °FIce fog.No wind92%30.30 "Hg0 mi
12:20 am10 °FIce fog.No wind92%30.30 "Hg0 mi
11:20 pm
Sat, Jan 21
10 °FIce fog.1 mph92%30.33 "Hg0 mi
10:20 pm12 °FIce fog.No wind85%30.33 "Hg0 mi
9:20 pm12 °FIce fog.1 mph92%30.33 "Hg0 mi
8:20 pm12 °FIce fog.No wind92%30.33 "Hg0 mi
7:20 pm14 °FIce fog.1 mph85%30.33 "Hg0 mi
6:20 pm14 °FIce fog.1 mph92%30.33 "Hg0 mi
5:20 pm14 °FIce fog.2 mph92%30.33 "Hg0 mi
5:05 pm14 °FIce fog.2 mph92%30.33 "Hg0 mi
4:54 pm16 °FIce fog.2 mph86%30.33 "Hg1 mi
4:20 pm16 °FIce fog.3 mph93%30.33 "Hg1 mi
3:20 pm18 °FIce fog.3 mph86%30.33 "Hg2 mi
Weather by CustomWeather, © 2017

See weather overviewHow to use our weather pages